Portada
METAR-TAF:

METAR-TAF

Aeroports :

Birdsville, Austràlia

latitud: 25-53-51S, longitud: 139-20-51E, altitud: 48 m

Observació

L'informe es va fer fa 19 minuts, a les 23:00 UTC
Vent 4 kt del Est/Sud-Est
Temperatura 23°C
Humitat 53%
Pressió 1021 hPa

METAR: YBDV 182300Z AUTO 11004KT //// // ////// 23/13 Q1021

Hora: 09:19 (23:19 UTC)


TAF: manca

Observacions i pronòstics meteorològics de més de 4000 aeroports (METAR i TAF).

Les estacions disponibles són els punts grocs i vermells al mapa.

Posi el ratolí al punt desitjat per veure el nom de l'estació.

Feu clic per veure les observacions i els pronòstics meteorològics.

Per canviar el mapa: feu clic els botons verds amb una creu de color negre per apropar; al botó verd amb un guió per allunyar la imatge; o en les fletxes verdes per a mapes adjacents.


METAR-TAF: